Palm Springs, CA

2:56 AM PDT on May 26, 2017 (GMT -0700)
Palm Springs International

Weather History for KPSP - December, 2012

Change the Weather History Date:

Thursday, December 20, 2012

  Actual Average Record
Temperature  
Mean Temperature 46 °F 55 °F  
Max Temperature 59 °F 66 °F 82 °F (1972)
Min Temperature 33 °F 44 °F 28 °F (1992)
Degree Days  
Heating Degree Days 19 10  
Month to date heating degree days 122 183  
Since 1 July heating degree days 157 279  
Cooling Degree Days 0 0  
Month to date cooling degree days 21 0  
Year to date cooling degree days 4726 4137  
Moisture  
Dew Point 16 °F    
Average Humidity 34    
Maximum Humidity 52    
Minimum Humidity 15    
Precipitation  
Precipitation 0.00 in 0.03 in 1.00 in (1909)
Month to date precipitation 0.19 0.46  
Year to date precipitation 2.01 5.32  
Since 1 July precipitation 1.22  
Snow  
Snow 0.00 in - - ()
Month to date snowfall 0.0  
Year to date snowfall 0.0  
Snow Depth 0.00 in    
Sea Level Pressure  
Sea Level Pressure 30.28 in    
Wind  
Wind Speed 3 mph (NW)    
Max Wind Speed 7 mph    
Max Gust Speed 10 mph    
Visibility 10 miles    
Events      
T = Trace of Precipitation, MM = Missing Value Source: NWS Daily Summary

Daily Weather History Graph

Daily Weather History Graph

Search for Another Location

Airport or City:

Trip Planner

Search our weather history database for the weather conditions in past years. The results will help you decide how hot, cold, wet, or windy it might be!

Date:

Astronomy

Dec. 20, 2012 Rise Set
Actual Time 6:46 AM PST 4:41 PM PST
Civil Twilight 6:19 AM PST 5:08 PM PST
Nautical Twilight 5:47 AM PST 5:40 PM PST
Astronomical Twilight 5:17 AM PST 6:10 PM PST
Moon 11:48 AM PST (12/20) No Moon Set
Length of Visible Light 10h 49m
Length of Day
9h 54m
First Quarter, 56% of the Moon is Illuminated
Dec 20
First Quarter
Dec 28
Full
Jan 4
Last Quarter
Jan 11
New
Jan 18
First Quarter

Hourly Weather History & Observations

Time (PST) Temp. Windchill Dew Point Humidity Pressure Visibility Wind Dir Wind Speed Gust Speed Precip Events Conditions
12:53 AM 41.0 °F 37.1 °F 18.0 °F 40% 30.36 in 10.0 mi NNW 5.8 mph - N/A   Clear
1:53 AM 39.9 °F - 19.0 °F 43% 30.35 in 10.0 mi Calm Calm - N/A   Clear
2:53 AM 37.9 °F 34.4 °F 17.1 °F 43% 30.35 in 10.0 mi NNW 4.6 mph - N/A   Clear
3:53 AM 39.0 °F 35.7 °F 16.0 °F 39% 30.35 in 10.0 mi NW 4.6 mph - N/A   Clear
4:53 AM 35.1 °F - 19.9 °F 54% 30.35 in 10.0 mi Calm Calm - N/A   Clear
5:53 AM 39.0 °F 35.7 °F 15.1 °F 38% 30.35 in 10.0 mi NW 4.6 mph - N/A   Clear
6:53 AM 39.0 °F 36.8 °F 16.0 °F 39% 30.36 in 10.0 mi NW 3.5 mph - N/A   Clear
7:53 AM 43.0 °F 41.3 °F 16.0 °F 34% 30.37 in 10.0 mi WNW 3.5 mph - N/A   Clear
8:53 AM 46.9 °F - 12.9 °F 25% 30.38 in 10.0 mi NW 4.6 mph - N/A   Clear
9:53 AM 53.1 °F - 8.1 °F 16% 30.36 in 10.0 mi Variable 3.5 mph - N/A   Clear
10:53 AM 55.0 °F - 9.0 °F 16% 30.33 in 10.0 mi Calm Calm - N/A   Clear
11:53 AM 55.9 °F - 10.0 °F 16% 30.30 in 10.0 mi ESE 6.9 mph - N/A   Clear
12:53 PM 57.0 °F - 10.9 °F 16% 30.27 in 10.0 mi Calm Calm - N/A   Clear
1:53 PM 57.9 °F - 12.0 °F 16% 30.24 in 10.0 mi Calm Calm - N/A   Clear
2:53 PM 57.9 °F - 10.9 °F 16% 30.22 in 10.0 mi Calm Calm - N/A   Clear
3:53 PM 57.9 °F - 12.0 °F 16% 30.21 in 10.0 mi Calm Calm - N/A   Clear
4:53 PM 55.9 °F - 15.1 °F 20% 30.20 in 10.0 mi Calm Calm - N/A   Clear
5:53 PM 51.1 °F - 21.0 °F 31% 30.20 in 10.0 mi West 4.6 mph - N/A   Clear
6:53 PM 48.9 °F - 19.9 °F 32% 30.20 in 10.0 mi NW 3.5 mph - N/A   Clear
7:53 PM 46.9 °F - 21.9 °F 37% 30.21 in 10.0 mi NW 4.6 mph - N/A   Clear
8:53 PM 44.1 °F 42.5 °F 23.0 °F 43% 30.22 in 10.0 mi West 3.5 mph - N/A   Clear
9:53 PM 46.0 °F 43.9 °F 21.0 °F 37% 30.22 in 10.0 mi WNW 4.6 mph - N/A   Clear
10:53 PM 45.0 °F 41.8 °F 19.9 °F 37% 30.21 in 10.0 mi WNW 5.8 mph - N/A   Clear
11:53 PM 43.0 °F 39.5 °F 21.0 °F 42% 30.19 in 10.0 mi NW 5.8 mph - N/A   Clear